Home   Weather   Port Coquitlam   Past weeks

Flag for Canada Past Weather in Port Coquitlam, British Columbia, Canada — Yesterday and Last 2 Weeks

Now
37 °F

Chilly.


Feels Like: 30 °F
Forecast: 21 / 34 °F
Wind: 9 mph from East

Location: P. Meadows Coastal Station

Current Time: Dec 6, 2016 at 1:52:48 pm

Latest Report: Dec 6, 2016 at 1:00 pm


Visibility: N/A

Pressure: 30.24 "Hg

Humidity: 51%

Dew Point: 20 °F

Location of Port CoquitlamLocation

Past Weather in Port Coquitlam — Graph

°F

Port Coquitlam Temperature Yesterday

Maximum temperature yesterday: 36 °F (at 12:00 pm)
Minimum temperature yesterday: 30 °F (at 12:00 am)
Average temperature yesterday: 34 °F

High & Low Weather Summary for the Past Weeks

 TemperatureHumidityPressure
High54 °F (Nov 21, 12:00 pm)100% (Nov 27, 1:00 pm)30.34 "Hg (Nov 27, 1:00 pm)
Low29 °F (Dec 6, 7:00 am)57% (Dec 6, 11:00 am)29.42 "Hg (Nov 27, 9:00 pm)
Average42 °F89%29.94 "Hg
* Reported Nov 21 11:00 am — Dec 6 11:00 am, Port Coquitlam, Weather by CustomWeather, © 2016

Note: Actual official high and low records may vary slightly from our data, if they occured in-between our weather recording intervals... More about our weather records

Advertising

Port Coquitlam Weather History for the Previous 24 Hours

Scroll right to see more
 ConditionsComfort  
Time TempWeatherWind HumidityBarometerVisibility
11:00 am
Tue, Dec 6
36 °FChilly.8 mph57%30.23 "HgN/A
9:00 am33 °FChilly.2 mph66%30.20 "HgN/A
8:00 am32 °FChilly.7 mph66%30.17 "HgN/A
7:00 am29 °FChilly.1 mph77%30.16 "HgN/A
6:00 am33 °FChilly.5 mph63%30.14 "HgN/A
5:00 am32 °FChilly.2 mph74%30.13 "HgN/A
4:00 am34 °FChilly.5 mph65%30.12 "HgN/A
3:00 am34 °FChilly.3 mph68%30.11 "HgN/A
2:00 am34 °FChilly.5 mph72%30.09 "HgN/A
1:00 am32 °FChilly.3 mph89%30.08 "HgN/A
12:00 am31 °FChilly.1 mph96%30.08 "HgN/A
11:00 pm
Mon, Dec 5
31 °FChilly.No wind96%30.07 "HgN/A
10:00 pm33 °FChilly.No wind95%30.06 "HgN/A
9:00 pm34 °FChilly.1 mph89%30.06 "HgN/A
8:00 pm33 °FChilly.1 mph100%30.04 "HgN/A
7:00 pm35 °FChilly.No wind94%30.04 "HgN/A
6:00 pm35 °FChilly.2 mph95%30.04 "HgN/A
5:00 pm35 °FChilly.1 mph95%30.03 "HgN/A
4:00 pm35 °FChilly.6 mph94%30.03 "HgN/A
3:00 pm34 °FChilly.3 mph95%30.03 "HgN/A
2:00 pm33 °FChilly.3 mph95%30.03 "HgN/A
1:00 pm35 °FChilly.7 mph93%30.03 "HgN/A
Weather by CustomWeather, © 2016

See weather overviewHow to use our weather pages